Time,TemperatureF,DewpointF,PressureIn,WindDirection,WindDirectionDegrees,WindSpeedMPH,WindSpeedGustMPH,Humidity,HourlyPrecipIn,Conditions,Clouds,dailyrainin,SoftwareType,DateUTC
2013-02-18 00:00:00,15.9,9.4,30.37,WNW,298,0.0,0.0,75,0.00,,,0.00,WeatherCatV1.02B3,2013-02-18 05:00:00,
2013-02-18 00:02:00,15.7,9.2,30.37,WNW,298,0.0,0.0,75,0.00,,,0.00,WeatherCatV1.02B3,2013-02-18 05:02:00,
2013-02-18 00:07:00,15.4,8.9,30.37,WNW,298,0.0,0.0,75,0.00,,,0.00,WeatherCatV1.02B3,2013-02-18 05:07:00,
2013-02-18 00:12:00,15.1,8.9,30.37,WNW,298,0.0,0.0,76,0.00,,,0.00,WeatherCatV1.02B3,2013-02-18 05:12:00,
2013-02-18 00:17:00,14.9,8.7,30.37,WNW,298,0.0,0.0,76,0.00,,,0.00,WeatherCatV1.02B3,2013-02-18 05:17:00,
2013-02-18 00:22:00,14.7,8.5,30.37,WNW,298,0.0,0.0,76,0.00,,,0.00,WeatherCatV1.02B3,2013-02-18 05:22:00,
2013-02-18 00:27:00,14.4,8.5,30.38,WNW,298,0.0,0.0,77,0.00,,,0.00,WeatherCatV1.02B3,2013-02-18 05:27:00,
2013-02-18 00:32:00,14.4,8.8,30.38,WNW,298,0.0,0.0,78,0.00,,,0.00,WeatherCatV1.02B3,2013-02-18 05:32:00,
2013-02-18 00:37:00,14.2,8.6,30.38,WNW,298,0.0,0.0,78,0.00,,,0.00,WeatherCatV1.02B3,2013-02-18 05:37:00,
2013-02-18 00:42:00,14.1,8.5,30.38,WNW,298,0.0,0.0,78,0.00,,,0.00,WeatherCatV1.02B3,2013-02-18 05:42:00,
2013-02-18 00:47:00,13.9,8.6,30.38,WNW,298,0.0,0.0,79,0.00,,,0.00,WeatherCatV1.02B3,2013-02-18 05:47:00,
2013-02-18 00:52:00,13.7,8.4,30.38,WNW,298,0.0,0.0,79,0.00,,,0.00,WeatherCatV1.02B3,2013-02-18 05:52:00,
2013-02-18 00:53:00,13.6,8.3,30.38,WNW,298,0.0,0.0,79,0.00,,,0.00,WeatherCatV1.02B3,2013-02-18 05:53:00,
2013-02-18 00:58:00,13.5,8.2,30.38,WNW,298,0.0,0.0,79,0.00,,,0.00,WeatherCatV1.02B3,2013-02-18 05:58:00,
2013-02-18 01:00:00,13.4,8.1,30.38,WNW,298,0.0,0.0,79,0.00,,,0.00,WeatherCatV1.02B3,2013-02-18 06:00:00,
2013-02-18 01:05:00,13.2,8.2,30.39,WNW,298,0.0,0.0,80,0.00,,,0.00,WeatherCatV1.02B3,2013-02-18 06:05:00,
2013-02-18 01:11:00,13.0,8.0,30.38,WNW,298,0.0,0.0,80,0.00,,,0.00,WeatherCatV1.02B3,2013-02-18 06:11:00,
2013-02-18 01:16:00,12.9,7.9,30.38,WNW,298,0.0,0.0,80,0.00,,,0.00,WeatherCatV1.02B3,2013-02-18 06:16:00,
2013-02-18 01:21:00,12.7,7.7,30.38,WNW,298,0.0,0.0,80,0.00,,,0.00,WeatherCatV1.02B3,2013-02-18 06:21:00,
2013-02-18 01:26:00,12.6,7.9,30.38,WNW,298,0.0,0.0,81,0.00,,,0.00,WeatherCatV1.02B3,2013-02-18 06:26:00,
2013-02-18 01:31:00,12.4,7.7,30.38,WNW,298,0.0,0.0,81,0.00,,,0.00,WeatherCatV1.02B3,2013-02-18 06:31:00,
2013-02-18 01:36:00,12.3,7.6,30.38,WNW,298,0.0,0.0,81,0.00,,,0.00,WeatherCatV1.02B3,2013-02-18 06:36:00,
2013-02-18 01:41:00,12.1,7.4,30.38,WNW,298,0.0,0.0,81,0.00,,,0.00,WeatherCatV1.02B3,2013-02-18 06:41:00,
2013-02-18 01:46:00,12.2,7.8,30.38,WNW,298,0.0,0.0,82,0.00,,,0.00,WeatherCatV1.02B3,2013-02-18 06:46:00,
2013-02-18 01:51:00,12.3,7.9,30.39,WNW,298,0.0,0.0,82,0.00,,,0.00,WeatherCatV1.02B3,2013-02-18 06:51:00,
2013-02-18 01:56:00,12.3,7.9,30.39,WNW,298,0.0,0.0,82,0.00,,,0.00,WeatherCatV1.02B3,2013-02-18 06:56:00,
2013-02-18 02:01:00,12.4,8.0,30.38,WNW,298,0.0,0.0,82,0.00,,,0.00,WeatherCatV1.02B3,2013-02-18 07:01:00,
2013-02-18 02:06:00,12.5,8.1,30.39,WNW,298,0.0,0.0,82,0.00,,,0.00,WeatherCatV1.02B3,2013-02-18 07:06:00,
2013-02-18 02:11:00,12.5,8.1,30.39,WNW,298,0.0,0.0,82,0.00,,,0.00,WeatherCatV1.02B3,2013-02-18 07:11:00,
2013-02-18 02:16:00,12.4,8.0,30.39,WNW,298,0.0,0.0,82,0.00,,,0.00,WeatherCatV1.02B3,2013-02-18 07:16:00,
2013-02-18 02:21:00,12.4,8.0,30.39,WNW,298,0.0,0.0,82,0.00,,,0.00,WeatherCatV1.02B3,2013-02-18 07:21:00,
2013-02-18 02:26:00,12.3,7.9,30.39,WNW,298,0.0,0.0,82,0.00,,,0.00,WeatherCatV1.02B3,2013-02-18 07:26:00,
2013-02-18 02:31:00,12.1,7.7,30.39,WNW,298,0.0,0.0,82,0.00,,,0.00,WeatherCatV1.02B3,2013-02-18 07:31:00,
2013-02-18 02:36:00,12.0,7.6,30.39,WNW,298,0.0,0.0,82,0.00,,,0.00,WeatherCatV1.02B3,2013-02-18 07:36:00,
2013-02-18 02:41:00,11.8,7.4,30.39,WNW,298,0.0,0.0,82,0.00,,,0.00,WeatherCatV1.02B3,2013-02-18 07:41:00,
2013-02-18 02:46:00,11.6,7.2,30.39,WNW,298,0.0,0.0,82,0.00,,,0.00,WeatherCatV1.02B3,2013-02-18 07:46:00,
2013-02-18 02:51:00,11.5,7.1,30.39,WNW,298,0.0,0.0,82,0.00,,,0.00,WeatherCatV1.02B3,2013-02-18 07:51:00,
2013-02-18 02:56:00,11.4,7.0,30.39,WNW,298,0.0,0.0,82,0.00,,,0.00,WeatherCatV1.02B3,2013-02-18 07:56:00,
2013-02-18 03:01:00,11.4,7.0,30.39,WNW,298,0.0,0.0,82,0.00,,,0.00,WeatherCatV1.02B3,2013-02-18 08:01:00,
2013-02-18 03:06:00,11.3,6.9,30.39,WNW,298,0.0,0.0,82,0.00,,,0.00,WeatherCatV1.02B3,2013-02-18 08:06:00,
2013-02-18 03:11:00,11.4,7.0,30.39,WNW,298,0.0,0.0,82,0.00,,,0.00,WeatherCatV1.02B3,2013-02-18 08:11:00,
2013-02-18 03:16:00,11.5,7.1,30.39,WNW,298,0.0,0.0,82,0.00,,,0.00,WeatherCatV1.02B3,2013-02-18 08:16:00,
2013-02-18 03:21:00,11.7,7.6,30.39,SW,226,0.0,0.0,83,0.00,,,0.00,WeatherCatV1.02B3,2013-02-18 08:21:00,
2013-02-18 03:26:00,11.8,7.7,30.39,SW,226,0.0,0.0,83,0.00,,,0.00,WeatherCatV1.02B3,2013-02-18 08:26:00,
2013-02-18 03:31:00,11.8,7.7,30.39,SW,226,0.0,0.0,83,0.00,,,0.00,WeatherCatV1.02B3,2013-02-18 08:31:00,
2013-02-18 03:36:00,12.0,7.8,30.39,SW,226,0.0,0.0,83,0.00,,,0.00,WeatherCatV1.02B3,2013-02-18 08:36:00,
2013-02-18 03:41:00,12.1,7.9,30.39,SW,226,0.0,0.0,83,0.00,,,0.00,WeatherCatV1.02B3,2013-02-18 08:41:00,
2013-02-18 03:46:00,12.6,8.4,30.39,SW,226,0.0,0.0,83,0.00,,,0.00,WeatherCatV1.02B3,2013-02-18 08:46:00,
2013-02-18 03:51:00,12.8,8.6,30.39,SW,219,0.0,0.0,83,0.00,,,0.00,WeatherCatV1.02B3,2013-02-18 08:51:00,
2013-02-18 03:56:00,13.0,8.8,30.38,SE,140,0.0,0.0,83,0.00,,,0.00,WeatherCatV1.02B3,2013-02-18 08:56:00,
2013-02-18 04:01:00,13.1,8.7,30.38,SE,140,0.0,0.0,82,0.00,,,0.00,WeatherCatV1.02B3,2013-02-18 09:01:00,
2013-02-18 04:06:00,13.4,9.0,30.38,SE,140,0.0,0.0,82,0.00,,,0.00,WeatherCatV1.02B3,2013-02-18 09:06:00,
2013-02-18 04:11:00,13.7,9.2,30.38,ESE,121,0.0,0.0,82,0.00,,,0.00,WeatherCatV1.02B3,2013-02-18 09:11:00,
2013-02-18 04:16:00,13.8,9.3,30.38,ESE,121,0.0,0.0,82,0.00,,,0.00,WeatherCatV1.02B3,2013-02-18 09:16:00,
2013-02-18 04:21:00,13.9,9.2,30.38,ESE,121,0.0,0.0,81,0.00,,,0.00,WeatherCatV1.02B3,2013-02-18 09:21:00,
2013-02-18 04:26:00,13.8,9.1,30.38,ESE,121,0.0,0.0,81,0.00,,,0.00,WeatherCatV1.02B3,2013-02-18 09:26:00,
2013-02-18 04:31:00,13.8,8.8,30.38,ESE,121,0.0,0.0,80,0.00,,,0.00,WeatherCatV1.02B3,2013-02-18 09:31:00,
2013-02-18 04:36:00,13.8,8.8,30.38,ESE,121,0.0,0.0,80,0.00,,,0.00,WeatherCatV1.02B3,2013-02-18 09:36:00,
2013-02-18 04:41:00,13.7,8.7,30.38,ESE,121,1.0,1.0,80,0.00,,,0.00,WeatherCatV1.02B3,2013-02-18 09:41:00,
2013-02-18 04:46:00,14.0,9.0,30.38,ESE,121,0.0,0.0,80,0.00,,,0.00,WeatherCatV1.02B3,2013-02-18 09:46:00,
2013-02-18 04:51:00,14.3,9.3,30.38,ESE,121,0.0,0.0,80,0.00,,,0.00,WeatherCatV1.02B3,2013-02-18 09:51:00,
2013-02-18 04:56:00,14.5,9.5,30.38,ESE,123,0.0,2.0,80,0.00,,,0.00,WeatherCatV1.02B3,2013-02-18 09:56:00,
2013-02-18 05:01:00,14.7,9.7,30.38,SE,124,0.0,0.0,80,0.00,,,0.00,WeatherCatV1.02B3,2013-02-18 10:01:00,
2013-02-18 05:06:00,14.7,9.7,30.38,SE,124,0.0,2.0,80,0.00,,,0.00,WeatherCatV1.02B3,2013-02-18 10:06:00,
2013-02-18 05:11:00,14.8,9.5,30.38,ESE,123,0.0,1.0,79,0.00,,,0.00,WeatherCatV1.02B3,2013-02-18 10:11:00,
2013-02-18 05:16:00,14.9,9.6,30.37,ESE,113,0.0,0.0,79,0.00,,,0.00,WeatherCatV1.02B3,2013-02-18 10:16:00,
2013-02-18 05:21:00,15.0,9.7,30.37,ESE,113,0.0,0.0,79,0.00,,,0.00,WeatherCatV1.02B3,2013-02-18 10:21:00,
2013-02-18 05:26:00,15.1,9.8,30.37,SE,125,0.0,1.0,79,0.00,,,0.00,WeatherCatV1.02B3,2013-02-18 10:26:00,
2013-02-18 05:31:00,15.1,9.8,30.37,SE,125,0.0,0.0,79,0.00,,,0.00,WeatherCatV1.02B3,2013-02-18 10:31:00,
2013-02-18 05:36:00,15.0,9.4,30.38,East,92,0.0,0.0,78,0.00,,,0.00,WeatherCatV1.02B3,2013-02-18 10:36:00,
2013-02-18 05:41:00,14.9,9.3,30.38,East,99,0.0,0.0,78,0.00,,,0.00,WeatherCatV1.02B3,2013-02-18 10:41:00,
2013-02-18 05:46:00,14.9,9.3,30.38,ESE,119,0.0,0.0,78,0.00,,,0.00,WeatherCatV1.02B3,2013-02-18 10:46:00,
2013-02-18 05:51:00,14.7,9.1,30.38,ESE,119,0.0,0.0,78,0.00,,,0.00,WeatherCatV1.02B3,2013-02-18 10:51:00,
2013-02-18 05:56:00,14.6,9.0,30.38,ESE,119,0.0,0.0,78,0.00,,,0.00,WeatherCatV1.02B3,2013-02-18 10:56:00,
2013-02-18 06:01:00,14.4,8.8,30.38,ESE,119,0.0,0.0,78,0.00,,,0.00,WeatherCatV1.02B3,2013-02-18 11:01:00,
2013-02-18 06:06:00,14.4,9.1,30.38,ESE,119,0.0,0.0,79,0.00,,,0.00,WeatherCatV1.02B3,2013-02-18 11:06:00,
2013-02-18 06:11:00,14.5,9.2,30.38,SE,142,0.0,2.0,79,0.00,,,0.00,WeatherCatV1.02B3,2013-02-18 11:11:00,
2013-02-18 06:16:00,14.4,8.8,30.38,SE,142,0.0,0.0,78,0.00,,,0.00,WeatherCatV1.02B3,2013-02-18 11:16:00,
2013-02-18 06:22:00,14.3,9.0,30.39,SE,142,0.0,1.0,79,0.00,,,0.00,WeatherCatV1.02B3,2013-02-18 11:22:00,
2013-02-18 06:27:00,14.3,8.7,30.38,SE,142,1.0,2.0,78,0.00,,,0.00,WeatherCatV1.02B3,2013-02-18 11:27:00,
2013-02-18 06:33:00,14.4,8.8,30.38,South,191,0.0,1.0,78,0.00,,,0.00,WeatherCatV1.02B3,2013-02-18 11:33:00,
2013-02-18 06:38:00,14.4,8.8,30.38,SE,130,0.0,2.0,78,0.00,,,0.00,WeatherCatV1.02B3,2013-02-18 11:38:00,
2013-02-18 06:43:00,14.5,9.2,30.38,SE,136,0.0,1.0,79,0.00,,,0.00,WeatherCatV1.02B3,2013-02-18 11:43:00,
2013-02-18 06:50:00,14.6,9.0,30.37,SE,129,0.0,3.0,78,0.00,,,0.00,WeatherCatV1.02B3,2013-02-18 11:50:00,
2013-02-18 06:55:00,14.8,9.2,30.37,SE,136,0.0,3.0,78,0.00,,,0.00,WeatherCatV1.02B3,2013-02-18 11:55:00,
2013-02-18 07:01:00,15.0,9.4,30.37,ESE,118,1.0,2.0,78,0.00,,,0.00,WeatherCatV1.02B3,2013-02-18 12:01:00,
2013-02-18 07:06:00,15.1,9.5,30.37,SE,134,1.0,2.0,78,0.00,,,0.00,WeatherCatV1.02B3,2013-02-18 12:06:00,
2013-02-18 07:11:00,15.1,9.5,30.37,SSE,153,0.0,3.0,78,0.00,,,0.00,WeatherCatV1.02B3,2013-02-18 12:11:00,
2013-02-18 07:16:00,15.0,9.4,30.37,SE,132,2.0,3.0,78,0.00,,,0.00,WeatherCatV1.02B3,2013-02-18 12:16:00,
2013-02-18 07:21:00,15.1,9.5,30.37,SE,132,0.0,3.0,78,0.00,,,0.00,WeatherCatV1.02B3,2013-02-18 12:21:00,
2013-02-18 07:26:00,15.1,9.5,30.37,ESE,105,0.0,0.0,78,0.00,,,0.00,WeatherCatV1.02B3,2013-02-18 12:26:00,
2013-02-18 07:31:00,15.2,9.6,30.37,ESE,123,0.0,3.0,78,0.00,,,0.00,WeatherCatV1.02B3,2013-02-18 12:31:00,
2013-02-18 07:36:00,15.3,9.7,30.37,SE,134,0.0,3.0,78,0.00,,,0.00,WeatherCatV1.02B3,2013-02-18 12:36:00,
2013-02-18 07:41:00,15.4,9.8,30.37,ESE,114,4.0,4.0,78,0.00,,,0.00,WeatherCatV1.02B3,2013-02-18 12:41:00,
2013-02-18 07:46:00,15.5,9.9,30.36,SE,134,1.0,2.0,78,0.00,,,0.00,WeatherCatV1.02B3,2013-02-18 12:46:00,
2013-02-18 07:51:00,15.8,10.2,30.36,SE,139,0.0,4.0,78,0.00,,,0.00,WeatherCatV1.02B3,2013-02-18 12:51:00,
2013-02-18 07:56:00,16.1,10.2,30.36,ESE,111,3.0,4.0,77,0.00,,,0.00,WeatherCatV1.02B3,2013-02-18 12:56:00,
2013-02-18 08:01:00,16.4,10.5,30.36,ESE,120,3.0,6.0,77,0.00,,,0.00,WeatherCatV1.02B3,2013-02-18 13:01:00,
2013-02-18 08:06:00,16.8,10.9,30.35,SE,146,1.0,4.0,77,0.00,,,0.00,WeatherCatV1.02B3,2013-02-18 13:06:00,
2013-02-18 08:11:00,17.0,10.8,30.35,SE,135,2.0,3.0,76,0.00,,,0.00,WeatherCatV1.02B3,2013-02-18 13:11:00,
2013-02-18 08:16:00,17.3,11.1,30.35,ESE,109,2.0,2.0,76,0.00,,,0.00,WeatherCatV1.02B3,2013-02-18 13:16:00,
2013-02-18 08:21:00,17.6,11.1,30.35,SE,141,0.0,3.0,75,0.00,,,0.00,WeatherCatV1.02B3,2013-02-18 13:21:00,
2013-02-18 08:26:00,18.0,11.4,30.35,SE,126,0.0,4.0,75,0.00,,,0.00,WeatherCatV1.02B3,2013-02-18 13:26:00,
2013-02-18 08:31:00,18.3,11.4,30.34,SSE,159,2.0,4.0,74,0.00,,,0.00,WeatherCatV1.02B3,2013-02-18 13:31:00,
2013-02-18 08:36:00,18.7,11.8,30.34,ESE,121,2.0,3.0,74,0.00,,,0.00,WeatherCatV1.02B3,2013-02-18 13:36:00,
2013-02-18 08:41:00,19.2,12.3,30.35,ESE,111,4.0,5.0,74,0.00,,,0.00,WeatherCatV1.02B3,2013-02-18 13:41:00,
2013-02-18 08:46:00,19.6,12.4,30.35,ESE,121,0.0,4.0,73,0.00,,,0.00,WeatherCatV1.02B3,2013-02-18 13:46:00,
2013-02-18 08:51:00,20.1,12.5,30.35,SE,138,0.0,3.0,72,0.00,,,0.00,WeatherCatV1.02B3,2013-02-18 13:51:00,
2013-02-18 08:56:00,20.7,13.1,30.34,SE,129,4.0,4.0,72,0.00,,,0.00,WeatherCatV1.02B3,2013-02-18 13:56:00,
2013-02-18 09:01:00,21.0,13.1,30.34,SE,130,0.0,4.0,71,0.00,,,0.00,WeatherCatV1.02B3,2013-02-18 14:01:00,
2013-02-18 09:06:00,21.8,13.5,30.33,ESE,105,5.0,6.0,70,0.00,,,0.00,WeatherCatV1.02B3,2013-02-18 14:06:00,
2013-02-18 09:11:00,22.3,13.7,30.33,SE,129,2.0,10.0,69,0.00,,,0.00,WeatherCatV1.02B3,2013-02-18 14:11:00,
2013-02-18 09:16:00,22.8,13.8,30.32,East,99,3.0,4.0,68,0.00,,,0.00,WeatherCatV1.02B3,2013-02-18 14:16:00,
2013-02-18 09:21:00,23.3,14.0,30.33,SE,127,5.0,11.0,67,0.00,,,0.00,WeatherCatV1.02B3,2013-02-18 14:21:00,
2013-02-18 09:26:00,23.7,14.0,30.32,ESE,108,2.0,9.0,66,0.00,,,0.00,WeatherCatV1.02B3,2013-02-18 14:26:00,
2013-02-18 09:31:00,24.3,14.3,30.32,SSE,164,1.0,10.0,65,0.00,,,0.00,WeatherCatV1.02B3,2013-02-18 14:31:00,
2013-02-18 09:36:00,24.9,14.1,30.32,SE,138,1.0,10.0,63,0.00,,,0.00,WeatherCatV1.02B3,2013-02-18 14:36:00,
2013-02-18 09:41:00,25.3,14.1,30.31,ESE,117,3.0,13.0,62,0.00,,,0.00,WeatherCatV1.02B3,2013-02-18 14:41:00,
2013-02-18 09:46:00,25.7,14.1,30.31,ESE,108,6.0,6.0,61,0.00,,,0.00,WeatherCatV1.02B3,2013-02-18 14:46:00,
2013-02-18 09:51:00,26.1,14.5,30.30,SSE,157,2.0,6.0,61,0.00,,,0.00,WeatherCatV1.02B3,2013-02-18 14:51:00,
2013-02-18 09:56:00,26.5,14.1,30.30,SSE,163,2.0,10.0,59,0.00,,,0.00,WeatherCatV1.02B3,2013-02-18 14:56:00,
2013-02-18 10:01:00,26.6,14.2,30.29,ESE,114,4.0,11.0,59,0.00,,,0.00,WeatherCatV1.02B3,2013-02-18 15:01:00,
2013-02-18 10:06:00,27.1,15.1,30.29,SE,127,2.0,6.0,60,0.00,,,0.00,WeatherCatV1.02B3,2013-02-18 15:06:00,
2013-02-18 10:11:00,27.1,14.7,30.29,SSE,159,6.0,13.0,59,0.00,,,0.00,WeatherCatV1.02B3,2013-02-18 15:11:00,
2013-02-18 10:16:00,27.4,14.6,30.28,SE,127,10.0,13.0,58,0.00,,,0.00,WeatherCatV1.02B3,2013-02-18 15:16:00,
2013-02-18 10:21:00,27.9,15.1,30.28,East,94,4.0,7.0,58,0.00,,,0.00,WeatherCatV1.02B3,2013-02-18 15:21:00,
2013-02-18 10:26:00,28.2,15.3,30.28,SE,146,3.0,8.0,58,0.00,,,0.00,WeatherCatV1.02B3,2013-02-18 15:26:00,
2013-02-18 10:31:00,28.4,15.5,30.28,SE,133,5.0,6.0,58,0.00,,,0.00,WeatherCatV1.02B3,2013-02-18 15:31:00,
2013-02-18 10:36:00,28.4,15.9,30.28,ESE,111,5.0,7.0,59,0.00,,,0.00,WeatherCatV1.02B3,2013-02-18 15:36:00,
2013-02-18 10:41:00,28.5,15.6,30.28,SE,134,5.0,12.0,58,0.00,,,0.00,WeatherCatV1.02B3,2013-02-18 15:41:00,
2013-02-18 10:46:00,28.8,15.9,30.28,SE,146,6.0,6.0,58,0.00,,,0.00,WeatherCatV1.02B3,2013-02-18 15:46:00,
2013-02-18 10:51:00,29.0,16.1,30.27,SSE,153,4.0,10.0,58,0.00,,,0.00,WeatherCatV1.02B3,2013-02-18 15:51:00,
2013-02-18 10:56:00,29.9,17.3,30.27,SE,138,4.0,6.0,59,0.00,,,0.00,WeatherCatV1.02B3,2013-02-18 15:56:00,
2013-02-18 11:01:00,30.2,16.4,30.27,East,92,6.0,12.0,56,0.00,,,0.00,WeatherCatV1.02B3,2013-02-18 16:01:00,
2013-02-18 11:06:00,30.2,16.0,30.27,ESE,123,5.0,14.0,55,0.00,,,0.00,WeatherCatV1.02B3,2013-02-18 16:06:00,
2013-02-18 11:11:00,30.7,16.9,30.26,SE,125,0.0,5.0,56,0.00,,,0.00,WeatherCatV1.02B3,2013-02-18 16:11:00,
2013-02-18 11:16:00,31.1,16.4,30.26,SSE,150,3.0,10.0,54,0.00,,,0.00,WeatherCatV1.02B3,2013-02-18 16:16:00,
2013-02-18 11:21:00,31.1,16.4,30.26,SE,127,0.0,10.0,54,0.00,,,0.00,WeatherCatV1.02B3,2013-02-18 16:21:00,
2013-02-18 11:26:00,31.1,16.8,30.25,SE,140,9.0,9.0,55,0.00,,,0.00,WeatherCatV1.02B3,2013-02-18 16:26:00,
2013-02-18 11:31:00,31.1,16.4,30.25,ESE,115,14.0,14.0,54,0.00,,,0.00,WeatherCatV1.02B3,2013-02-18 16:31:00,
2013-02-18 11:36:00,31.6,17.7,30.24,SE,141,1.0,3.0,56,0.00,,,0.00,WeatherCatV1.02B3,2013-02-18 16:36:00,
2013-02-18 11:41:00,32.0,16.8,30.24,East,96,5.0,9.0,53,0.00,,,0.00,WeatherCatV1.02B3,2013-02-18 16:41:00,
2013-02-18 11:46:00,31.8,17.1,30.24,ESE,111,6.0,10.0,54,0.00,,,0.00,WeatherCatV1.02B3,2013-02-18 16:46:00,
2013-02-18 11:51:00,32.5,18.2,30.23,SE,146,4.0,6.0,55,0.00,,,0.00,WeatherCatV1.02B3,2013-02-18 16:51:00,
2013-02-18 11:56:00,32.9,18.1,30.23,SE,126,4.0,5.0,54,0.00,,,0.00,WeatherCatV1.02B3,2013-02-18 16:56:00,
2013-02-18 12:01:00,32.8,17.6,30.23,East,98,2.0,12.0,53,0.00,,,0.00,WeatherCatV1.02B3,2013-02-18 17:01:00,
2013-02-18 12:06:00,32.8,18.0,30.22,SSE,161,6.0,10.0,54,0.00,,,0.00,WeatherCatV1.02B3,2013-02-18 17:06:00,
2013-02-18 12:11:00,32.6,17.8,30.22,SSE,153,5.0,7.0,54,0.00,,,0.00,WeatherCatV1.02B3,2013-02-18 17:11:00,
2013-02-18 12:16:00,33.3,18.9,30.22,ESE,123,0.0,9.0,55,0.00,,,0.00,WeatherCatV1.02B3,2013-02-18 17:16:00,
2013-02-18 12:21:00,33.5,19.1,30.21,SSE,149,5.0,7.0,55,0.00,,,0.00,WeatherCatV1.02B3,2013-02-18 17:21:00,
2013-02-18 12:26:00,33.3,18.5,30.20,ESE,122,6.0,12.0,54,0.00,,,0.00,WeatherCatV1.02B3,2013-02-18 17:26:00,
2013-02-18 12:31:00,33.6,19.2,30.20,SE,132,1.0,13.0,55,0.00,,,0.00,WeatherCatV1.02B3,2013-02-18 17:31:00,
2013-02-18 12:36:00,33.8,18.9,30.20,SSE,166,2.0,11.0,54,0.00,,,0.00,WeatherCatV1.02B3,2013-02-18 17:36:00,
2013-02-18 12:41:00,34.4,19.5,30.20,East,101,3.0,11.0,54,0.00,,,0.00,WeatherCatV1.02B3,2013-02-18 17:41:00,
2013-02-18 12:46:00,34.3,19.0,30.19,SSE,148,5.0,10.0,53,0.00,,,0.00,WeatherCatV1.02B3,2013-02-18 17:46:00,
2013-02-18 12:51:00,34.9,20.4,30.18,SE,125,9.0,10.0,55,0.00,,,0.00,WeatherCatV1.02B3,2013-02-18 17:51:00,
2013-02-18 12:56:00,34.9,20.4,30.17,ESE,103,6.0,12.0,55,0.00,,,0.00,WeatherCatV1.02B3,2013-02-18 17:56:00,
2013-02-18 13:01:00,35.4,20.9,30.17,East,95,4.0,7.0,55,0.00,,,0.00,WeatherCatV1.02B3,2013-02-18 18:01:00,
2013-02-18 13:06:00,35.7,20.7,30.16,ESE,117,3.0,7.0,54,0.00,,,0.00,WeatherCatV1.02B3,2013-02-18 18:06:00,
2013-02-18 13:11:00,35.5,20.1,30.16,SE,130,7.0,10.0,53,0.00,,,0.00,WeatherCatV1.02B3,2013-02-18 18:11:00,
2013-02-18 13:16:00,35.4,20.4,30.15,East,92,3.0,10.0,54,0.00,,,0.00,WeatherCatV1.02B3,2013-02-18 18:16:00,
2013-02-18 13:21:00,36.0,21.4,30.15,ESE,110,3.0,6.0,55,0.00,,,0.00,WeatherCatV1.02B3,2013-02-18 18:21:00,
2013-02-18 13:26:00,35.9,20.5,30.14,ESE,119,3.0,7.0,53,0.00,,,0.00,WeatherCatV1.02B3,2013-02-18 18:26:00,
2013-02-18 13:31:00,36.3,21.3,30.14,ESE,112,5.0,9.0,54,0.00,,,0.00,WeatherCatV1.02B3,2013-02-18 18:31:00,
2013-02-18 13:36:00,36.4,20.9,30.14,SSE,160,3.0,11.0,53,0.00,,,0.01,WeatherCatV1.02B3,2013-02-18 18:36:00,
2013-02-18 13:41:00,36.4,20.9,30.14,SSE,151,0.0,15.0,53,0.00,,,0.01,WeatherCatV1.02B3,2013-02-18 18:41:00,
2013-02-18 13:46:00,37.1,22.0,30.13,ESE,119,6.0,12.0,54,0.00,,,0.01,WeatherCatV1.02B3,2013-02-18 18:46:00,
2013-02-18 13:51:00,36.8,20.8,30.12,SE,135,10.0,18.0,52,0.00,,,0.01,WeatherCatV1.02B3,2013-02-18 18:51:00,
2013-02-18 13:56:00,37.1,21.6,30.12,SSE,150,6.0,11.0,53,0.00,,,0.01,WeatherCatV1.02B3,2013-02-18 18:56:00,
2013-02-18 14:01:00,37.4,22.3,30.11,ESE,115,7.0,9.0,54,0.00,,,0.01,WeatherCatV1.02B3,2013-02-18 19:01:00,
2013-02-18 14:06:00,37.7,22.1,30.11,SSE,157,3.0,12.0,53,0.00,,,0.01,WeatherCatV1.02B3,2013-02-18 19:06:00,
2013-02-18 14:11:00,37.9,21.9,30.11,SE,136,9.0,16.0,52,0.00,,,0.01,WeatherCatV1.02B3,2013-02-18 19:11:00,
2013-02-18 14:16:00,37.9,21.9,30.11,SE,125,6.0,14.0,52,0.00,,,0.01,WeatherCatV1.02B3,2013-02-18 19:16:00,
2013-02-18 14:21:00,38.0,22.0,30.11,ESE,119,5.0,12.0,52,0.00,,,0.01,WeatherCatV1.02B3,2013-02-18 19:21:00,
2013-02-18 14:26:00,38.2,22.6,30.10,SE,143,6.0,7.0,53,0.00,,,0.01,WeatherCatV1.02B3,2013-02-18 19:26:00,
2013-02-18 14:31:00,38.2,22.1,30.10,SE,133,10.0,10.0,52,0.00,,,0.01,WeatherCatV1.02B3,2013-02-18 19:31:00,
2013-02-18 14:36:00,38.5,22.4,30.10,ESE,110,9.0,15.0,52,0.00,,,0.01,WeatherCatV1.02B3,2013-02-18 19:36:00,
2013-02-18 14:41:00,38.8,23.2,30.10,SE,136,3.0,6.0,53,0.00,,,0.01,WeatherCatV1.02B3,2013-02-18 19:41:00,
2013-02-18 14:46:00,38.9,22.3,30.09,SE,124,6.0,11.0,51,0.00,,,0.01,WeatherCatV1.02B3,2013-02-18 19:46:00,
2013-02-18 14:51:00,38.9,22.3,30.09,SE,124,9.0,13.0,51,0.00,,,0.01,WeatherCatV1.02B3,2013-02-18 19:51:00,
2013-02-18 14:56:00,38.9,22.8,30.09,SE,137,7.0,10.0,52,0.00,,,0.01,WeatherCatV1.02B3,2013-02-18 19:56:00,
2013-02-18 15:01:00,38.9,22.8,30.09,East,89,4.0,11.0,52,0.00,,,0.01,WeatherCatV1.02B3,2013-02-18 20:01:00,
2013-02-18 15:06:00,39.3,23.2,30.09,SE,126,4.0,7.0,52,0.00,,,0.01,WeatherCatV1.02B3,2013-02-18 20:06:00,
2013-02-18 15:11:00,39.5,23.3,30.09,SE,126,6.0,12.0,52,0.00,,,0.01,WeatherCatV1.02B3,2013-02-18 20:11:00,
2013-02-18 15:16:00,39.5,23.3,30.09,ESE,117,9.0,13.0,52,0.00,,,0.01,WeatherCatV1.02B3,2013-02-18 20:16:00,
2013-02-18 15:21:00,39.6,23.4,30.09,ESE,114,4.0,11.0,52,0.00,,,0.01,WeatherCatV1.02B3,2013-02-18 20:21:00,
2013-02-18 15:26:00,39.5,22.9,30.09,SE,132,4.0,8.0,51,0.00,,,0.01,WeatherCatV1.02B3,2013-02-18 20:26:00,
2013-02-18 15:31:00,39.4,22.8,30.09,SE,126,14.0,16.0,51,0.00,,,0.01,WeatherCatV1.02B3,2013-02-18 20:31:00,
2013-02-18 15:36:00,39.4,23.3,30.09,SE,146,4.0,7.0,52,0.00,,,0.01,WeatherCatV1.02B3,2013-02-18 20:36:00,
2013-02-18 15:41:00,39.7,23.5,30.09,SE,142,2.0,10.0,52,0.00,,,0.01,WeatherCatV1.02B3,2013-02-18 20:41:00,
2013-02-18 15:46:00,39.9,24.2,30.08,ESE,117,2.0,8.0,53,0.00,,,0.01,WeatherCatV1.02B3,2013-02-18 20:46:00,
2013-02-18 15:51:00,40.1,23.9,30.08,SE,135,4.0,13.0,52,0.00,,,0.01,WeatherCatV1.02B3,2013-02-18 20:51:00,
2013-02-18 15:56:00,40.1,23.4,30.08,East,96,6.0,12.0,51,0.00,,,0.01,WeatherCatV1.02B3,2013-02-18 20:56:00,
2013-02-18 16:01:00,40.3,23.6,30.08,SE,127,5.0,12.0,51,0.00,,,0.01,WeatherCatV1.02B3,2013-02-18 21:01:00,
2013-02-18 16:06:00,40.2,24.0,30.08,SSE,152,1.0,13.0,52,0.00,,,0.01,WeatherCatV1.02B3,2013-02-18 21:06:00,
2013-02-18 16:11:00,40.3,24.1,30.07,ESE,123,0.0,7.0,52,0.00,,,0.01,WeatherCatV1.02B3,2013-02-18 21:11:00,
2013-02-18 16:16:00,40.3,24.5,30.07,SSE,157,0.0,4.0,53,0.00,,,0.01,WeatherCatV1.02B3,2013-02-18 21:16:00,
2013-02-18 16:21:00,40.3,24.1,30.07,SE,134,2.0,7.0,52,0.00,,,0.01,WeatherCatV1.02B3,2013-02-18 21:21:00,
2013-02-18 16:26:00,40.3,24.1,30.07,SE,132,7.0,9.0,52,0.00,,,0.01,WeatherCatV1.02B3,2013-02-18 21:26:00,
2013-02-18 16:32:00,40.4,24.2,30.06,ESE,121,7.0,10.0,52,0.00,,,0.01,WeatherCatV1.02B3,2013-02-18 21:32:00,
2013-02-18 16:37:00,40.4,24.2,30.06,SE,126,9.0,11.0,52,0.00,,,0.01,WeatherCatV1.02B3,2013-02-18 21:37:00,
2013-02-18 16:42:00,40.4,24.2,30.06,SSE,161,2.0,11.0,52,0.00,,,0.01,WeatherCatV1.02B3,2013-02-18 21:42:00,
2013-02-18 16:47:00,40.4,24.2,30.05,SE,136,4.0,12.0,52,0.00,,,0.01,WeatherCatV1.02B3,2013-02-18 21:47:00,
2013-02-18 16:52:00,40.4,24.2,30.05,SE,145,5.0,13.0,52,0.00,,,0.01,WeatherCatV1.02B3,2013-02-18 21:52:00,
2013-02-18 16:57:00,40.4,24.6,30.05,ESE,113,7.0,15.0,53,0.00,,,0.01,WeatherCatV1.02B3,2013-02-18 21:57:00,
2013-02-18 17:02:00,40.4,24.6,30.04,ESE,110,6.0,10.0,53,0.00,,,0.01,WeatherCatV1.02B3,2013-02-18 22:02:00,
2013-02-18 17:07:00,40.3,24.5,30.03,ESE,110,14.0,14.0,53,0.00,,,0.01,WeatherCatV1.02B3,2013-02-18 22:07:00,
2013-02-18 17:13:00,40.2,24.9,30.03,SE,141,5.0,11.0,54,0.00,,,0.01,WeatherCatV1.02B3,2013-02-18 22:13:00,
2013-02-18 17:18:00,40.2,24.9,30.04,SSE,155,10.0,11.0,54,0.00,,,0.01,WeatherCatV1.02B3,2013-02-18 22:18:00,
2013-02-18 17:23:00,40.3,25.0,30.03,SE,138,2.0,9.0,54,0.00,,,0.01,WeatherCatV1.02B3,2013-02-18 22:23:00,
2013-02-18 17:28:00,40.1,24.8,30.03,ESE,122,5.0,13.0,54,0.00,,,0.01,WeatherCatV1.02B3,2013-02-18 22:28:00,
2013-02-18 17:34:00,40.1,24.8,30.03,ESE,119,5.0,13.0,54,0.00,,,0.01,WeatherCatV1.02B3,2013-02-18 22:34:00,
2013-02-18 17:39:00,40.0,24.7,30.03,SE,130,5.0,11.0,54,0.00,,,0.01,WeatherCatV1.02B3,2013-02-18 22:39:00,
2013-02-18 17:44:00,40.0,24.7,30.03,SE,132,0.0,9.0,54,0.00,,,0.01,WeatherCatV1.02B3,2013-02-18 22:44:00,
2013-02-18 17:49:00,39.9,24.6,30.03,SE,130,1.0,6.0,54,0.00,,,0.01,WeatherCatV1.02B3,2013-02-18 22:49:00,
2013-02-18 17:54:00,39.8,25.0,30.03,SSE,156,0.0,4.0,55,0.00,,,0.01,WeatherCatV1.02B3,2013-02-18 22:54:00,
2013-02-18 17:59:00,39.9,25.1,30.02,SE,132,7.0,17.0,55,0.00,,,0.01,WeatherCatV1.02B3,2013-02-18 22:59:00,
2013-02-18 18:04:00,39.9,25.1,30.03,ESE,121,4.0,10.0,55,0.00,,,0.01,WeatherCatV1.02B3,2013-02-18 23:04:00,
2013-02-18 18:09:00,39.8,25.0,30.03,SSE,148,4.0,10.0,55,0.00,,,0.01,WeatherCatV1.02B3,2013-02-18 23:09:00,
2013-02-18 18:14:00,39.8,25.0,30.02,SE,137,7.0,9.0,55,0.00,,,0.01,WeatherCatV1.02B3,2013-02-18 23:14:00,
2013-02-18 18:19:00,39.9,25.1,30.02,SSE,168,6.0,12.0,55,0.00,,,0.01,WeatherCatV1.02B3,2013-02-18 23:19:00,
2013-02-18 18:24:00,39.9,25.1,30.02,ESE,121,10.0,10.0,55,0.00,,,0.01,WeatherCatV1.02B3,2013-02-18 23:24:00,
2013-02-18 18:29:00,39.8,25.4,30.01,SE,125,7.0,7.0,56,0.00,,,0.01,WeatherCatV1.02B3,2013-02-18 23:29:00,
2013-02-18 18:34:00,39.8,25.4,30.01,ESE,107,5.0,9.0,56,0.00,,,0.01,WeatherCatV1.02B3,2013-02-18 23:34:00,
2013-02-18 18:39:00,39.8,25.4,30.01,SE,127,0.0,4.0,56,0.00,,,0.01,WeatherCatV1.02B3,2013-02-18 23:39:00,
2013-02-18 18:44:00,39.9,25.5,30.00,SE,146,2.0,12.0,56,0.00,,,0.01,WeatherCatV1.02B3,2013-02-18 23:44:00,
2013-02-18 18:49:00,40.0,25.6,30.00,ESE,118,9.0,11.0,56,0.00,,,0.01,WeatherCatV1.02B3,2013-02-18 23:49:00,
2013-02-18 18:54:00,40.1,25.2,30.00,SE,141,6.0,11.0,55,0.00,,,0.01,WeatherCatV1.02B3,2013-02-18 23:54:00,
2013-02-18 18:59:00,40.3,25.4,30.00,SE,142,0.0,5.0,55,0.00,,,0.01,WeatherCatV1.02B3,2013-02-18 23:59:00,
2013-02-18 19:04:00,40.2,25.3,30.00,ESE,112,1.0,10.0,55,0.00,,,0.01,WeatherCatV1.02B3,2013-02-19 00:04:00,
2013-02-18 19:09:00,40.3,25.9,29.99,SE,131,12.0,12.0,56,0.00,,,0.01,WeatherCatV1.02B3,2013-02-19 00:09:00,
2013-02-18 19:14:00,40.5,25.6,29.99,SE,135,5.0,10.0,55,0.00,,,0.01,WeatherCatV1.02B3,2013-02-19 00:14:00,
2013-02-18 19:19:00,40.6,26.1,29.99,SSE,161,2.0,7.0,56,0.00,,,0.01,WeatherCatV1.02B3,2013-02-19 00:19:00,
2013-02-18 19:24:00,40.6,26.1,29.99,SE,129,3.0,6.0,56,0.00,,,0.01,WeatherCatV1.02B3,2013-02-19 00:24:00,
2013-02-18 19:29:00,40.8,26.3,29.99,ESE,107,7.0,9.0,56,0.00,,,0.01,WeatherCatV1.02B3,2013-02-19 00:29:00,
2013-02-18 19:34:00,40.9,26.0,29.98,SE,146,4.0,18.0,55,0.00,,,0.01,WeatherCatV1.02B3,2013-02-19 00:34:00,
2013-02-18 19:39:00,41.2,26.3,29.98,East,94,4.0,7.0,55,0.00,,,0.01,WeatherCatV1.02B3,2013-02-19 00:39:00,
2013-02-18 19:44:00,41.4,26.5,29.98,SE,132,7.0,21.0,55,0.00,,,0.01,WeatherCatV1.02B3,2013-02-19 00:44:00,
2013-02-18 19:49:00,41.4,26.5,29.98,East,88,3.0,9.0,55,0.00,,,0.01,WeatherCatV1.02B3,2013-02-19 00:49:00,
2013-02-18 19:54:00,41.5,26.6,29.97,ESE,103,5.0,13.0,55,0.00,,,0.01,WeatherCatV1.02B3,2013-02-19 00:54:00,
2013-02-18 19:59:00,41.6,26.6,29.97,SE,136,3.0,13.0,55,0.00,,,0.01,WeatherCatV1.02B3,2013-02-19 00:59:00,
2013-02-18 20:04:00,41.7,26.7,29.97,SE,132,1.0,16.0,55,0.00,,,0.01,WeatherCatV1.02B3,2013-02-19 01:04:00,
2013-02-18 20:09:00,41.7,26.7,29.96,East,88,6.0,14.0,55,0.00,,,0.01,WeatherCatV1.02B3,2013-02-19 01:09:00,
2013-02-18 20:14:00,42.0,27.0,29.97,SSE,161,0.0,7.0,55,0.00,,,0.01,WeatherCatV1.02B3,2013-02-19 01:14:00,
2013-02-18 20:19:00,41.9,26.9,29.97,SE,130,6.0,14.0,55,0.00,,,0.01,WeatherCatV1.02B3,2013-02-19 01:19:00,
2013-02-18 20:24:00,42.0,27.0,29.96,SE,142,8.0,13.0,55,0.00,,,0.01,WeatherCatV1.02B3,2013-02-19 01:24:00,
2013-02-18 20:29:00,42.1,27.5,29.96,SE,146,5.0,9.0,56,0.00,,,0.01,WeatherCatV1.02B3,2013-02-19 01:29:00,
2013-02-18 20:34:00,42.2,27.2,29.96,SE,136,0.0,13.0,55,0.00,,,0.01,WeatherCatV1.02B3,2013-02-19 01:34:00,
2013-02-18 20:39:00,42.4,27.4,29.95,ESE,111,15.0,15.0,55,0.00,,,0.01,WeatherCatV1.02B3,2013-02-19 01:39:00,
2013-02-18 20:44:00,42.3,27.7,29.96,ESE,115,6.0,7.0,56,0.00,,,0.01,WeatherCatV1.02B3,2013-02-19 01:44:00,
2013-02-18 20:50:00,42.5,27.9,29.96,SE,125,5.0,11.0,56,0.00,,,0.01,WeatherCatV1.02B3,2013-02-19 01:50:00,
2013-02-18 20:56:00,42.6,28.0,29.95,SSW,197,1.0,5.0,56,0.00,,,0.01,WeatherCatV1.02B3,2013-02-19 01:56:00,
2013-02-18 21:01:00,42.7,28.1,29.94,ESE,107,6.0,13.0,56,0.00,,,0.01,WeatherCatV1.02B3,2013-02-19 02:01:00,
2013-02-18 21:06:00,42.8,28.2,29.94,ESE,122,0.0,10.0,56,0.00,,,0.01,WeatherCatV1.02B3,2013-02-19 02:06:00,
2013-02-18 21:11:00,43.0,28.4,29.94,SE,128,6.0,9.0,56,0.00,,,0.01,WeatherCatV1.02B3,2013-02-19 02:11:00,
2013-02-18 21:17:00,43.1,28.5,29.93,ESE,121,3.0,7.0,56,0.00,,,0.01,WeatherCatV1.02B3,2013-02-19 02:17:00,
2013-02-18 21:22:00,43.1,28.5,29.93,East,98,11.0,13.0,56,0.00,,,0.01,WeatherCatV1.02B3,2013-02-19 02:22:00,
2013-02-18 21:28:00,43.2,28.6,29.92,SE,136,6.0,10.0,56,0.00,,,0.01,WeatherCatV1.02B3,2013-02-19 02:28:00,
2013-02-18 21:33:00,43.2,29.0,29.92,ESE,110,4.0,5.0,57,0.00,,,0.01,WeatherCatV1.02B3,2013-02-19 02:33:00,
2013-02-18 21:38:00,43.4,29.2,29.92,SSE,157,3.0,5.0,57,0.00,,,0.01,WeatherCatV1.02B3,2013-02-19 02:38:00,
2013-02-18 21:44:00,43.5,29.3,29.92,SSW,200,3.0,5.0,57,0.00,,,0.01,WeatherCatV1.02B3,2013-02-19 02:44:00,
2013-02-18 21:49:00,43.9,29.7,29.91,SE,132,7.0,9.0,57,0.00,,,0.01,WeatherCatV1.02B3,2013-02-19 02:49:00,
2013-02-18 21:55:00,44.0,29.8,29.91,SE,126,10.0,11.0,57,0.00,,,0.02,WeatherCatV1.02B3,2013-02-19 02:55:00,
2013-02-18 22:00:00,44.3,30.0,29.90,ESE,123,3.0,7.0,57,0.00,,,0.02,WeatherCatV1.02B3,2013-02-19 03:00:00,
2013-02-18 22:06:00,44.6,30.3,29.90,ESE,117,5.0,11.0,57,0.00,,,0.02,WeatherCatV1.02B3,2013-02-19 03:06:00,
2013-02-18 22:11:00,44.7,30.0,29.89,SE,130,3.0,7.0,56,0.00,,,0.02,WeatherCatV1.02B3,2013-02-19 03:11:00,
2013-02-18 22:17:00,44.6,30.3,29.89,SSE,160,1.0,10.0,57,0.00,,,0.02,WeatherCatV1.02B3,2013-02-19 03:17:00,
2013-02-18 22:22:00,44.8,30.5,29.89,SW,234,4.0,10.0,57,0.00,,,0.02,WeatherCatV1.02B3,2013-02-19 03:22:00,
2013-02-18 22:27:00,45.2,30.9,29.89,SSE,156,3.0,10.0,57,0.00,,,0.02,WeatherCatV1.02B3,2013-02-19 03:27:00,
2013-02-18 22:32:00,45.3,31.0,29.89,SSE,155,2.0,5.0,57,0.00,,,0.02,WeatherCatV1.02B3,2013-02-19 03:32:00,
2013-02-18 22:38:00,45.6,31.3,29.88,SE,132,8.0,10.0,57,0.00,,,0.02,WeatherCatV1.02B3,2013-02-19 03:38:00,
2013-02-18 22:43:00,45.6,31.3,29.88,SSE,156,2.0,16.0,57,0.00,,,0.02,WeatherCatV1.02B3,2013-02-19 03:43:00,
2013-02-18 22:48:00,45.6,31.3,29.87,SE,124,2.0,10.0,57,0.00,,,0.02,WeatherCatV1.02B3,2013-02-19 03:48:00,
2013-02-18 22:53:00,45.7,31.3,29.87,ENE,61,0.0,8.0,57,0.00,,,0.02,WeatherCatV1.02B3,2013-02-19 03:53:00,
2013-02-18 22:58:00,45.9,31.5,29.87,SE,144,5.0,6.0,57,0.00,,,0.02,WeatherCatV1.02B3,2013-02-19 03:58:00,
2013-02-18 23:03:00,45.9,31.5,29.86,ESE,109,5.0,11.0,57,0.00,,,0.02,WeatherCatV1.02B3,2013-02-19 04:03:00,
2013-02-18 23:08:00,45.7,31.8,29.86,SE,129,6.0,10.0,58,0.00,,,0.02,WeatherCatV1.02B3,2013-02-19 04:08:00,
2013-02-18 23:13:00,45.6,31.7,29.86,SE,142,5.0,12.0,58,0.00,,,0.02,WeatherCatV1.02B3,2013-02-19 04:13:00,
2013-02-18 23:18:00,45.7,31.8,29.86,East,96,3.0,10.0,58,0.00,,,0.02,WeatherCatV1.02B3,2013-02-19 04:18:00,
2013-02-18 23:23:00,45.9,32.0,29.85,ESE,115,4.0,14.0,58,0.00,,,0.02,WeatherCatV1.02B3,2013-02-19 04:23:00,
2013-02-18 23:29:00,45.8,31.9,29.85,SE,137,5.0,12.0,58,0.00,,,0.02,WeatherCatV1.02B3,2013-02-19 04:29:00,
2013-02-18 23:34:00,45.7,31.8,29.84,SE,130,6.0,10.0,58,0.00,,,0.02,WeatherCatV1.02B3,2013-02-19 04:34:00,
2013-02-18 23:40:00,45.7,31.8,29.84,ESE,119,7.0,14.0,58,0.00,,,0.02,WeatherCatV1.02B3,2013-02-19 04:40:00,
2013-02-18 23:45:00,45.7,32.2,29.83,SE,126,4.0,11.0,59,0.00,,,0.02,WeatherCatV1.02B3,2013-02-19 04:45:00,
2013-02-18 23:50:00,45.9,32.0,29.83,ENE,78,1.0,8.0,58,0.00,,,0.02,WeatherCatV1.02B3,2013-02-19 04:50:00,
2013-02-18 23:55:00,46.0,32.1,29.83,ESE,109,6.0,13.0,58,0.00,,,0.02,WeatherCatV1.02B3,2013-02-19 04:55:00,